Flag for Poland Weather past 2 weeks in Białystok, Poland

Now
53 °F

Overcast.


Feels Like: 52 °F
Forecast: 43 / 55 °F
Wind: 5 mph from West

Location: Bialystok

Current Time: Oct 21, 2014 at 12:32:11 PM

Latest Report: Oct 21, 2014 at 11:00 AM


Visibility: 7 mi

Pressure: 29.73 "Hg

Humidity: 81%

Dew point: 47 °F

Location of BiałystokLocation

Historic Weather in Białystok — Graph

°F

Białystok temperature yesterday

Maximum temperature yesterday: 60 °F (at 11:00 AM)
Minimum temperature yesterday: 49 °F (at 11:00 PM)
Average temperature yesterday: 56 °F

Past Weeks' High & Low Weather Summary

 TemperatureHumidityPressure
High72 °F (Oct 10, 3:00 PM)100% (Oct 12, 9:00 AM)30.40 "Hg (Oct 12, 9:00 AM)
Low25 °F (Oct 19, 12:00 AM)50% (Oct 7, 3:00 PM)29.64 "Hg (Oct 14, 9:00 PM)
Average52 °F84%29.96 "Hg
* Reported Oct 6 11:00 AM — Oct 21 11:00 AM, Białystok, Weather by CustomWeather, © 2014

Note: Actual official high and low records may vary slightly from our data, if they occured in-between our weather recording intervals... More about our weather records

Advertising

Białystok weather history for previous 24 hours

 ConditionsComfort  
Time TempWeatherWind HumidityBarometerVisibility
11:00 AM
Oct 21
53 °FOvercast.5 mph81%29.73 "Hg7 mi
10:00 AM52 °FOvercast.3 mph83%29.72 "Hg6 mi
9:00 AM52 °FOvercast.3 mph85%29.72 "Hg6 mi
8:00 AM51 °FOvercast.3 mph90%29.71 "Hg6 mi
7:00 AM51 °FOvercast.3 mph88%29.70 "Hg6 mi
6:00 AM51 °FOvercast.5 mph88%29.70 "Hg6 mi
5:00 AM51 °FOvercast.5 mph88%29.70 "Hg7 mi
4:00 AM50 °FOvercast.5 mph89%29.70 "Hg7 mi
3:00 AM50 °FOvercast.5 mph87%29.70 "Hg8 mi
2:00 AM50 °FPassing clouds.6 mph87%29.71 "Hg11 mi
1:00 AM50 °FPassing clouds.6 mph85%29.71 "Hg12 mi
12:00 AM49 °FPassing clouds.5 mph89%29.72 "Hg14 mi
11:00 PM
Oct 20
49 °FClear.3 mph88%29.72 "Hg15 mi
10:00 PM50 °FClear.3 mph86%29.71 "Hg19 mi
9:00 PM50 °FPassing clouds.3 mph91%29.71 "Hg12 mi
8:00 PM52 °FPassing clouds.5 mph86%29.71 "Hg17 mi
7:00 PM52 °FSprinkles. Overcast.3 mph89%29.70 "Hg11 mi
6:00 PM56 °FSprinkles. Overcast.6 mph79%29.68 "Hg12 mi
5:00 PM58 °FOvercast.5 mph75%29.67 "Hg18 mi
4:00 PM56 °FOvercast.3 mph83%29.67 "Hg19 mi
3:00 PM57 °FSprinkles. Overcast.5 mph78%29.69 "Hg7 mi
2:00 PM60 °FOvercast.6 mph65%29.69 "Hg18 mi
1:00 PM60 °FPartly sunny.7 mph65%29.69 "Hg25 mi
12:00 PM60 °FOvercast.5 mph70%29.70 "Hg22 mi
Weather by CustomWeather, © 2014

See weather overviewHow to use our weather pages